Temperature
17 17 17 17 17 17 17 17 17 17 17 17 17 17 17 17 17 17 17 17 18 18 18 18 17 17 17 17 17 17 17 17 17 17 17 17 17 17 17 17 17 17 16
17 17 17 17 17 17 16 17 16 17 17 17 17 17 17 17 17 17 17 17 17 18 18 18 18 17 17 17 17 17 17 17 17 17 17 17 17 17 17 17 17 17 16
17 17 17 17 16 16 16 16 16 16 16 16 16 16 16 17 17 17 17 17 17 17 18 18 18 18 18 17 17 17 17 17 17 17 17 17 17 17 17 17 17 17 16
16 16 16 16 16 16 16 16 16 16 16 16 16 16 16 16 16 16 16 16 17 17 17 17 18 18 18 17 17 17 17 17 17 17 17 17 17 17 17 17 17 17 17
16 16 15 15 16 15 15 15 16 16 16 16 16 16 16 16 16 16 16 16 16 17 17 17 17 17 17 17 17 17 17 17 17 17 17 17 17 17 17 17 17 17 17
15 15 15 15 15 15 15 15 15 15 15 15 16 16 16 16 16 16 16 16 16 16 16 17 17 17 17 17 17 17 17 17 17 17 17 17 17 17 17 17 17 17 17
15 15 15 14 14 14 14 14 14 14 15 15 15 16 16 16 16 16 16 16 16 16 16 16 16 17 17 17 17 17 17 17 17 17 17 17 17 17 17 17 17 17 17
14 14 14 14 14 14 14 14 14 14 14 14 14 15 16 17 16 16 16 16 16 16 16 16 16 16 16 17 17 17 17 17 17 17 17 17 17 17 17 17 17 17 17
14 14 13 13 13 13 14 13 13 13 14 14 14 15 16 17 17 16 16 16 16 16 16 16 16 16 16 16 17 17 17 17 17 17 17 17 17 17 17 17 17 17 17
13 13 13 13 13 13 13 13 13 13 13 14 14 14 14 14 15 16 16 16 15 15 15 15 15 16 16 16 16 17 17 17 17 17 17 17 17 17 17 17 17 17 17
12 12 12 12 12 12 12 12 12 12 13 13 14 14 14 14 14 14 15 15 15 15 15 15 15 15 15 15 16 16 16 17 17 17 17 17 17 17 17 17 17 17 17
13 12 12 11 11 12 11 11 12 12 12 12 13 13 13 14 14 14 14 14 15 15 15 15 15 15 15 15 15 16 16 16 17 17 17 17 17 17 17 17 17 17 17
13 12 11 11 11 11 11 11 11 11 11 12 12 12 13 13 13 13 14 14 14 15 15 15 15 15 15 15 15 16 16 16 16 17 17 17 17 17 17 17 17 17 17
12 11 10 10 10 10 10 11 11 11 11 11 11 12 12 12 13 13 13 13 14 14 15 15 15 15 15 15 15 15 15 16 16 16 16 16 17 17 17 17 17 17 17
11 10 10 10 10 10 10 10 10 10 11 11 11 11 11 12 12 12 12 12 13 13 14 14 14 14 14 14 15 15 15 16 16 16 16 16 16 17 17 17 17 17 17
10 10 9 9 9 9 9 9 10 10 10 10 10 10 11 11 12 12 12 12 12 12 13 14 14 14 14 14 14 15 15 15 16 16 16 16 16 16 16 16 17 17 17
9 9 9 9 9 9 9 9 9 9 9 10 10 10 10 10 11 11 12 12 12 12 12 13 13 13 13 13 14 14 15 15 15 15 16 16 16 16 16 16 16 16 16
9 9 9 9 9 9 8 8 9 9 9 9 9 10 10 10 10 10 11 11 11 11 11 12 12 13 13 13 13 14 14 14 15 15 15 16 16 16 16 16 16 16 16
9 9 9 8 8 8 8 8 8 9 9 9 9 9 9 9 10 10 10 11 11 11 11 11 12 12 12 13 13 13 14 14 14 15 15 15 16 16 16 16 16 16 16
9 9 8 8 8 8 8 8 8 8 8 8 8 9 9 9 9 9 10 10 10 11 11 11 12 12 12 12 13 13 13 14 14 14 15 15 15 15 15 16 16 16 16
9 8 8 8 8 8 8 8 8 8 8 8 8 8 8 9 9 9 9 10 10 10 11 11 11 12 12 12 12 13 13 13 13 14 14 15 15 15 15 15 15 15 15
8 8 8 8 8 8 9 8 8 8 8 8 8 8 8 8 9 9 9 9 9 9 10 10 11 11 12 12 12 12 12 13 13 13 13 14 14 14 15 15 15 15 15
9 8 8 8 8 8 8 8 8 8 8 8 8 8 8 9 8 8 9 9 9 9 9 9 10 10 11 11 11 12 12 12 13 13 13 13 13 13 14 14 15 15 15
9 8 8 8 8 8 8 8 8 8 8 8 8 8 8 8 8 8 8 8 8 9 9 9 9 10 10 11 11 11 11 12 12 12 12 12 12 13 13 13 14 14 14
9 9 8 8 8 8 8 8 8 8 7 8 8 8 8 8 8 8 8 8 8 8 9 9 9 9 10 10 10 11 11 11 11 12 12 12 12 12 12 13 13 13 14
9 9 8 8 8 8 8 8 8 7 7 8 8 8 8 8 8 7 7 7 8 8 8 9 9 9 9 10 10 10 11 11 11 11 12 12 12 12 11 12 12 13 13
Wind_Speed
4 4 4 5 7 7 7 7 8 8 9 11 12 12 13 13 14 13 10 12 15 16 17 18 19 20 21 22 22 22 21 21 20 19 19 18 18 17 17 16 15 15 15
4 4 5 6 7 7 7 8 8 8 8 8 11 12 13 14 14 14 14 13 17 19 19 19 20 21 22 23 24 24 24 23 22 22 21 20 19 19 19 18 17 16 16
2 4 4 5 5 6 7 7 8 8 7 9 11 12 11 13 13 14 15 14 14 19 21 21 21 22 23 24 25 26 26 25 24 24 23 22 21 21 21 20 19 18 18
2 3 3 4 4 5 5 5 6 7 7 8 9 9 9 10 13 14 15 15 15 15 18 22 22 23 24 25 26 27 27 27 26 26 25 24 23 23 23 22 21 20 20
2 3 3 3 4 4 4 6 5 6 7 8 9 9 9 10 11 13 14 15 16 16 15 18 23 24 25 26 27 28 28 29 28 28 27 26 26 25 25 24 23 22 22
2 4 3 3 5 5 5 5 5 6 7 7 9 9 9 10 10 11 13 13 15 17 18 18 18 21 26 27 28 28 29 29 29 29 29 28 27 27 26 26 25 24 23
3 4 5 3 5 5 6 7 7 7 7 6 7 9 9 10 10 10 10 11 13 15 16 17 17 17 18 27 29 29 30 29 30 30 30 29 29 28 28 27 27 26 25
4 4 4 6 5 5 7 7 7 7 6 5 6 7 7 8 8 9 8 10 11 11 12 15 17 17 18 17 22 29 31 31 31 31 31 31 30 30 29 29 28 27 27
4 5 5 6 6 8 7 6 7 8 7 6 6 6 6 6 5 5 6 7 8 8 9 10 14 16 19 18 18 25 31 32 32 31 31 32 31 31 30 30 29 29 28
5 6 6 6 7 8 7 8 7 7 8 8 6 6 7 7 6 6 6 6 7 8 8 8 10 12 16 17 19 21 27 30 32 31 31 32 32 32 31 31 30 29 29
5 6 6 7 7 8 8 8 8 9 9 9 8 7 7 7 8 8 8 6 6 7 7 8 8 9 13 16 17 20 24 28 30 31 32 32 32 33 32 32 31 30 29
5 6 7 7 8 8 8 9 9 10 9 9 9 8 8 7 7 7 8 8 8 7 7 6 8 8 10 14 17 19 21 26 28 30 31 32 32 32 32 32 32 31 30
6 5 7 7 8 8 9 9 9 10 10 10 10 10 9 9 8 8 8 9 9 8 7 7 7 7 9 10 13 15 19 24 27 29 30 31 31 32 32 33 32 31 30
8 7 8 9 9 9 10 9 10 11 10 10 12 11 9 10 9 8 8 8 9 9 8 8 5 5 6 8 9 12 16 21 25 27 29 30 31 31 32 32 32 31 30
8 8 9 10 10 10 10 10 10 10 10 11 12 12 11 10 9 9 8 8 9 10 9 7 5 5 5 7 8 11 14 16 22 25 27 28 29 30 30 31 31 30 29
9 10 10 10 10 11 11 11 11 11 11 11 11 12 11 11 9 9 9 9 9 10 10 8 6 6 5 6 8 11 12 13 17 21 23 25 26 27 28 29 29 29 28
9 10 10 10 11 11 11 10 12 12 12 12 12 13 13 13 11 10 10 10 10 10 11 10 8 7 7 7 6 8 9 10 12 18 20 21 23 25 26 27 27 27 26
10 10 10 11 11 11 11 11 12 12 12 13 13 14 14 12 13 12 11 12 11 10 10 12 9 8 8 7 6 7 7 8 9 13 18 18 20 22 23 24 25 25 25
11 11 11 11 11 11 11 11 12 12 12 13 13 14 14 14 14 12 12 12 11 11 10 11 11 8 7 6 5 6 6 5 7 9 13 16 17 19 21 22 22 23 23
11 11 11 11 12 12 12 12 11 12 12 13 13 14 14 15 15 14 13 13 12 12 11 11 11 9 7 6 5 5 5 5 5 6 7 9 12 15 17 19 20 21 22
11 11 11 12 12 11 10 10 11 12 12 13 13 14 14 14 13 12 12 12 12 11 11 11 11 10 8 7 6 4 5 5 4 5 6 7 8 9 11 15 18 19 20
11 11 11 12 12 10 4 4 10 13 13 14 14 14 14 14 14 14 15 15 14 13 13 11 11 11 9 8 6 5 5 6 4 6 7 6 7 8 8 10 15 19 19
11 11 11 12 12 11 6 8 10 12 14 14 14 13 12 12 12 14 15 18 18 18 16 14 13 12 10 9 8 8 7 7 5 6 7 6 6 6 6 9 16 18 18
11 11 12 12 12 11 7 9 9 12 14 14 14 13 13 13 12 12 13 14 15 16 16 15 15 14 12 9 8 8 7 5 4 6 7 5 6 5 5 8 14 16 16
11 11 11 12 12 12 8 9 9 11 11 13 13 12 12 13 10 8 12 13 14 14 13 13 12 10 8 6 6 7 7 7 7 6 6 4 5 5 5 5 9 14 15
11 12 12 12 12 12 8 7 8 10 11 11 11 11 10 12 9 7 12 13 14 13 13 12 12 11 12 11 10 11 9 9 7 5 6 6 7 6 4 4 6 9 11
Wind_Direction
257 262 261 262 261 259 254 253 252 248 248 247 245 241 242 240 244 243 236 197 207 218 223 223 218 214 211 208 205 203 202 201 199 197 196 194 192 188 187 186 185 182 180
264 269 261 256 257 259 267 266 261 257 255 254 251 248 246 244 241 242 243 221 212 218 223 225 223 219 215 213 209 206 205 205 203 201 200 199 197 194 192 192 191 189 188
267 259 259 257 264 265 260 258 261 258 254 253 252 251 247 245 245 242 242 240 228 219 220 223 225 222 219 217 214 210 207 206 205 203 202 202 201 198 196 196 196 195 194
261 266 272 272 277 267 266 264 261 262 259 258 255 255 252 245 244 242 240 235 234 233 219 217 221 223 222 220 218 214 210 207 207 205 204 204 204 202 200 200 199 199 199
265 268 277 289 273 273 272 271 270 272 268 266 261 252 252 249 246 243 240 236 232 232 233 217 214 219 223 222 220 217 212 209 207 207 207 207 207 205 203 203 202 202 203
280 286 271 281 282 274 271 272 276 269 273 273 272 269 259 253 249 244 240 237 232 231 231 232 221 219 220 222 219 217 214 211 209 209 210 209 209 208 206 205 205 205 205
294 284 291 280 277 278 280 277 272 266 264 271 271 267 258 249 247 246 240 239 234 231 232 233 232 231 219 217 217 216 215 213 210 210 211 211 210 209 208 208 207 207 207
282 277 286 284 278 280 268 268 263 275 274 264 273 280 274 255 234 237 237 235 237 234 233 232 230 229 232 223 215 213 214 214 211 210 211 211 212 210 209 209 209 208 209
278 290 286 288 290 278 274 274 269 263 271 269 261 272 278 277 289 244 238 241 237 236 237 238 234 230 227 229 222 211 212 213 211 211 211 211 211 211 210 210 210 210 210
286 287 283 283 283 283 282 271 267 269 264 268 258 254 265 285 282 277 250 236 235 239 242 245 244 236 231 228 225 219 209 210 210 211 212 212 212 211 210 211 212 212 212
279 281 282 284 281 278 280 284 283 272 268 267 271 265 259 257 255 265 273 272 258 250 246 246 246 241 234 230 226 222 207 207 209 210 212 213 214 212 211 212 213 213 214
282 280 284 285 280 281 279 273 272 264 264 270 271 268 262 260 259 261 268 272 273 269 261 257 253 245 237 232 230 225 209 207 208 210 212 212 213 212 211 212 214 215 215
296 300 300 292 287 284 280 276 269 270 266 262 259 261 259 260 264 268 272 278 282 278 263 253 249 245 241 236 235 229 215 209 208 210 212 213 213 213 211 211 214 214 215
304 310 296 288 286 283 280 276 272 265 261 262 261 262 264 260 259 259 264 275 282 277 263 259 259 249 246 240 236 230 225 212 210 210 211 212 212 212 210 210 211 213 214
296 297 293 289 285 282 279 276 270 270 267 262 261 253 251 257 255 258 261 262 269 277 273 263 255 251 255 255 243 235 232 218 211 210 211 211 210 209 208 207 208 210 211
295 292 289 289 286 282 277 272 270 263 262 260 261 266 263 259 255 252 254 257 258 264 271 273 269 268 272 278 248 241 233 216 211 210 210 208 207 206 205 204 205 206 207
294 289 287 286 285 282 279 274 272 273 266 265 263 259 255 257 259 257 251 250 252 255 263 268 268 268 260 266 268 247 232 217 212 204 204 204 203 203 202 201 201 202 203
292 291 290 287 284 282 280 275 273 272 269 267 264 263 260 255 250 254 255 253 253 254 258 266 270 265 254 254 253 244 230 216 213 195 195 198 199 199 198 197 196 198 200
296 294 291 288 286 285 281 276 273 272 271 269 267 264 261 259 255 252 252 253 252 251 248 256 262 259 254 251 247 238 223 216 210 188 184 188 191 192 192 191 191 193 195
299 296 292 289 287 284 280 277 274 273 271 270 268 265 262 259 255 253 252 252 254 256 254 252 257 254 246 238 232 231 220 204 201 186 174 174 178 182 186 185 187 189 192
299 298 295 290 287 283 278 283 285 279 274 272 269 265 260 258 264 263 261 258 254 252 252 249 249 250 244 229 222 225 222 196 195 188 170 168 169 175 181 181 180 182 183
302 300 296 293 290 287 326 314 285 283 279 274 271 267 262 252 245 241 250 258 262 259 257 255 251 248 245 241 229 217 219 203 203 187 176 171 172 170 176 180 173 174 175
303 301 297 294 290 288 271 260 262 275 275 273 272 268 264 259 246 248 237 232 241 245 250 256 258 256 251 238 236 223 217 214 212 187 174 169 168 164 159 149 155 163 166
302 300 298 296 293 288 263 255 260 268 270 270 268 266 264 264 259 255 255 249 244 239 234 237 246 253 256 246 235 234 225 218 204 193 184 177 167 158 145 143 151 156 159
301 299 298 296 292 288 266 249 259 279 272 270 267 265 264 263 256 245 254 257 255 250 239 235 246 251 257 249 237 232 218 206 199 190 188 174 160 146 143 146 146 151 153
297 298 299 298 295 292 281 249 252 276 278 276 271 265 252 250 267 244 251 254 254 250 246 233 226 231 236 229 217 222 221 215 202 192 181 171 162 155 145 144 148 152 149
Height
1549 1549 1549 1550 1551 1552 1552 1552 1552 1553 1553 1554 1554 1555 1556 1557 1558 1560 1561 1560 1562 1564 1566 1569 1571 1573 1575 1577 1579 1581 1583 1585 1588 1590 1592 1594 1596 1598 1600 1602 1604 1606 1608
1546 1547 1547 1547 1548 1548 1548 1548 1549 1549 1549 1550 1550 1550 1551 1552 1553 1553 1555 1556 1557 1559 1561 1564 1566 1569 1571 1574 1576 1578 1580 1583 1585 1588 1590 1592 1595 1597 1599 1601 1603 1605 1607
1543 1543 1544 1544 1545 1544 1544 1544 1544 1545 1545 1545 1545 1545 1545 1546 1547 1548 1549 1551 1552 1553 1556 1558 1561 1564 1567 1569 1572 1574 1577 1579 1582 1585 1587 1590 1592 1595 1597 1599 1602 1604 1606
1541 1541 1542 1542 1541 1541 1541 1541 1541 1541 1541 1540 1540 1540 1540 1540 1541 1542 1543 1544 1546 1549 1550 1552 1555 1558 1561 1564 1567 1570 1573 1575 1578 1581 1584 1587 1589 1592 1594 1597 1599 1602 1604
1539 1539 1539 1539 1538 1538 1538 1538 1538 1537 1537 1536 1536 1535 1535 1535 1535 1536 1537 1538 1540 1542 1544 1546 1549 1552 1555 1558 1561 1564 1567 1570 1573 1577 1580 1583 1586 1588 1591 1594 1597 1599 1602
1537 1537 1537 1536 1536 1536 1535 1535 1534 1533 1533 1532 1532 1532 1531 1530 1530 1530 1530 1532 1533 1535 1537 1540 1542 1545 1548 1551 1554 1558 1561 1565 1568 1572 1575 1578 1581 1584 1587 1590 1593 1596 1599
1535 1535 1535 1533 1533 1533 1532 1532 1531 1530 1530 1529 1528 1528 1526 1525 1524 1524 1524 1526 1527 1529 1531 1533 1535 1539 1541 1543 1547 1551 1555 1559 1562 1566 1570 1573 1577 1580 1583 1586 1589 1592 1595
1533 1533 1532 1531 1531 1530 1528 1528 1527 1527 1527 1526 1525 1524 1523 1522 1520 1520 1520 1520 1521 1523 1525 1527 1528 1531 1534 1537 1539 1543 1547 1552 1556 1559 1563 1567 1571 1575 1578 1582 1585 1588 1591
1531 1530 1529 1528 1527 1527 1527 1525 1524 1524 1523 1523 1522 1522 1520 1517 1517 1517 1516 1516 1517 1518 1519 1521 1522 1524 1526 1530 1533 1536 1540 1544 1548 1553 1557 1561 1565 1569 1573 1577 1580 1583 1587
1528 1527 1526 1525 1524 1524 1523 1522 1522 1520 1520 1519 1519 1518 1518 1516 1516 1514 1514 1513 1513 1513 1514 1515 1516 1518 1520 1522 1525 1528 1532 1536 1541 1545 1550 1555 1559 1563 1567 1571 1575 1578 1582
1525 1524 1522 1521 1520 1520 1519 1517 1517 1516 1516 1516 1515 1514 1514 1513 1512 1512 1510 1510 1509 1509 1509 1510 1510 1512 1513 1515 1518 1521 1524 1529 1533 1538 1543 1547 1552 1557 1561 1565 1569 1573 1576
1522 1521 1519 1517 1516 1516 1515 1513 1512 1512 1511 1511 1511 1511 1510 1510 1509 1508 1507 1506 1505 1505 1504 1504 1505 1506 1507 1509 1511 1515 1517 1521 1526 1531 1536 1541 1545 1550 1555 1559 1563 1567 1571
1520 1517 1516 1513 1512 1511 1510 1509 1508 1508 1507 1506 1506 1506 1506 1506 1505 1505 1504 1503 1501 1500 1500 1500 1500 1500 1501 1503 1505 1508 1510 1514 1519 1523 1528 1534 1538 1543 1548 1552 1556 1561 1565
1516 1513 1511 1509 1508 1506 1505 1504 1504 1503 1502 1502 1501 1501 1501 1501 1501 1501 1500 1500 1498 1496 1496 1495 1495 1495 1496 1497 1499 1501 1504 1507 1511 1516 1521 1526 1531 1536 1541 1545 1550 1554 1558
1511 1509 1507 1505 1503 1502 1500 1499 1499 1498 1497 1497 1497 1496 1496 1496 1496 1496 1496 1496 1496 1493 1492 1491 1491 1491 1491 1492 1493 1495 1497 1500 1504 1509 1514 1519 1524 1529 1534 1538 1543 1548 1552
1505 1503 1502 1500 1498 1497 1495 1494 1494 1493 1492 1491 1491 1491 1490 1491 1491 1491 1491 1491 1491 1490 1488 1487 1487 1487 1487 1487 1488 1489 1491 1493 1497 1502 1506 1511 1516 1521 1526 1532 1536 1541 1546
1500 1498 1497 1495 1493 1492 1490 1489 1488 1487 1487 1486 1486 1486 1485 1485 1486 1486 1486 1486 1485 1485 1484 1483 1483 1483 1482 1483 1483 1484 1486 1488 1491 1495 1500 1504 1509 1514 1519 1525 1530 1534 1539
1496 1495 1492 1490 1489 1487 1486 1484 1483 1482 1481 1480 1480 1480 1479 1480 1479 1480 1480 1480 1480 1480 1479 1478 1478 1478 1478 1478 1479 1479 1481 1483 1486 1490 1493 1498 1503 1508 1513 1518 1523 1528 1532
1492 1490 1488 1486 1484 1482 1481 1479 1478 1477 1476 1475 1474 1474 1473 1473 1473 1474 1474 1474 1474 1475 1474 1474 1473 1474 1474 1474 1475 1475 1477 1479 1482 1485 1488 1492 1497 1501 1506 1511 1516 1521 1526
1488 1486 1484 1481 1479 1477 1476 1474 1473 1471 1470 1469 1468 1467 1467 1467 1467 1468 1468 1468 1469 1469 1469 1469 1469 1469 1469 1469 1470 1471 1473 1475 1477 1480 1483 1487 1491 1496 1500 1505 1510 1515 1520
1485 1482 1479 1477 1475 1473 1472 1470 1468 1467 1465 1463 1462 1461 1461 1461 1461 1461 1462 1463 1463 1464 1464 1464 1464 1464 1464 1465 1466 1467 1469 1470 1473 1475 1478 1482 1486 1490 1494 1498 1503 1509 1513
1481 1478 1475 1473 1470 1469 1467 1464 1462 1460 1459 1458 1456 1455 1455 1454 1454 1454 1455 1456 1457 1458 1458 1459 1459 1459 1460 1461 1462 1463 1465 1466 1469 1472 1474 1478 1481 1485 1489 1493 1498 1503 1508
1477 1474 1471 1468 1465 1463 1460 1458 1456 1454 1453 1452 1451 1449 1449 1449 1449 1448 1448 1448 1449 1450 1452 1453 1454 1454 1455 1456 1458 1459 1460 1461 1464 1467 1470 1473 1477 1481 1485 1489 1494 1498 1503
1473 1470 1467 1464 1461 1458 1455 1453 1451 1448 1447 1446 1445 1444 1443 1443 1443 1443 1443 1443 1443 1444 1445 1446 1448 1449 1451 1452 1453 1454 1456 1458 1460 1463 1466 1470 1473 1477 1481 1485 1490 1494 1499
1469 1466 1463 1459 1456 1453 1451 1448 1446 1443 1442 1441 1439 1438 1437 1437 1437 1437 1437 1437 1437 1438 1439 1440 1442 1443 1444 1446 1448 1450 1452 1454 1455 1458 1462 1465 1469 1473 1478 1482 1486 1491 1495
1465 1462 1459 1455 1452 1449 1446 1443 1441 1439 1438 1436 1434 1433 1432 1431 1431 1431 1431 1431 1432 1432 1434 1435 1436 1437 1438 1440 1442 1444 1447 1449 1451 1454 1456 1460 1464 1469 1474 1479 1482 1487 1491